datetime,total release
1963-12-13,9.0
1963-12-14,9.0
1963-12-15,9.0
1963-12-16,8.0
1963-12-17,8.0
1963-12-18,8.0
1963-12-19,7.0
1963-12-20,5.0
1963-12-21,5.0
1963-12-22,5.0
1963-12-23,5.0
1963-12-24,5.0
1963-12-25,5.0
1963-12-26,5.0
1963-12-27,5.0
1963-12-28,5.0
1963-12-29,5.0
1963-12-30,5.0
1963-12-31,7.0
1964-01-01,7.0
1964-01-02,7.0
1964-01-03,5.0
1964-01-04,5.0
1964-01-05,5.0
1964-01-06,4.0
1964-01-07,4.0
1964-01-08,4.0
1964-01-09,4.0
1964-01-10,4.0
1964-01-11,4.0
1964-01-12,4.0
1964-01-13,4.0
1964-01-14,4.0
1964-01-15,4.0
1964-01-16,4.0
1964-01-17,3.0
1964-01-18,3.0
1964-01-19,3.0
1964-01-20,3.0
1964-01-21,3.0
1964-01-22,3.0
1964-01-23,3.0
1964-01-24,3.0
1964-01-25,3.0
1964-01-26,3.0
1964-01-27,3.0
1964-01-28,3.0
1964-01-29,3.0
1964-01-30,3.0
1964-01-31,3.0
1964-02-01,3.0
1964-02-02,3.0
1964-02-03,3.0
1964-02-04,3.0
1964-02-05,3.0
1964-02-06,3.0
1964-02-07,3.0
1964-02-08,3.0
1964-02-09,3.0
1964-02-10,3.0
1964-02-11,3.0
1964-02-12,3.0
1964-02-13,3.0
1964-02-14,3.0
1964-02-15,3.0
1964-02-16,3.0
1964-02-17,3.0
1964-02-18,3.0
1964-02-19,4.0
1964-02-20,5.0
1964-02-21,5.0
1964-02-22,5.0
1964-02-23,5.0
1964-02-24,5.0
1964-02-25,5.0
1964-02-26,5.0
1964-02-27,5.0
1964-02-28,5.0
1964-02-29,5.0
1964-03-01,5.0
1964-03-02,5.0
1964-03-03,5.0
1964-03-04,5.0
1964-03-05,5.0
1964-03-06,5.0
1964-03-07,5.0
1964-03-08,5.0
1964-03-09,5.0
1964-03-10,5.0
1964-03-11,5.0
1964-03-12,5.0
1964-03-13,6.0
1964-03-14,6.0
1964-03-15,6.0
1964-03-16,6.0
1964-03-17,6.0
1964-03-18,6.0
1964-03-19,6.0
1964-03-20,3.0
1964-03-21,3.0
1964-03-22,3.0
1964-03-23,3.0
1964-03-24,3.0
1964-03-25,3.0
1964-03-26,3.0
1964-03-27,3.0
1964-03-28,0.0
1964-03-29,0.0
1964-03-30,0.0
1964-03-31,0.0
1964-04-01,0.0
1964-04-02,0.0
1964-04-03,0.0
1964-04-04,0.0
1964-04-05,0.0
1964-04-06,0.0
1964-04-07,0.0
1964-04-08,1.0
1964-04-09,1.0
1964-04-10,1.0
1964-04-11,1.0
1964-04-12,1.0
1964-04-13,1.0
1964-04-14,1.0
1964-04-15,1.0
1964-04-16,1.0
1964-04-17,0.0
1964-04-18,0.0
1964-04-19,0.0
1964-04-20,0.0
1964-04-21,0.0
1964-04-22,0.0
1964-04-23,0.0
1964-04-24,0.0
1964-04-25,0.0
1964-04-26,0.0
1964-04-27,0.0
1964-04-28,0.0
1964-04-29,0.0
1964-04-30,2.0
1964-05-01,4.0
1964-05-02,4.0
1964-05-03,4.0
1964-05-04,3.0
1964-05-05,3.0
1964-05-06,3.0
1964-05-07,3.0
1964-05-08,3.0
1964-05-09,3.0
1964-05-10,3.0
1964-05-11,12.0
1964-05-12,34.0
1964-05-13,50.0
1964-05-14,50.0
1964-05-15,97.0
1964-05-16,171.0
1964-05-17,185.0
1964-05-18,187.0
1964-05-19,190.0
1964-05-20,196.0
1964-05-21,200.0
1964-05-22,200.0
1964-05-23,200.0
1964-05-24,200.0
1964-05-25,221.0
1964-05-26,250.0
1964-05-27,250.0
1964-05-28,250.0
1964-05-29,250.0
1964-05-30,250.0
1964-05-31,246.0
1964-06-01,235.0
1964-06-02,199.0
1964-06-03,185.0
1964-06-04,210.0
1964-06-05,210.0
1964-06-06,210.0
1964-06-07,210.0
1964-06-08,214.0
1964-06-09,212.0
1964-06-10,196.0
1964-06-11,196.0
1964-06-12,196.0
1964-06-13,196.0
1964-06-14,196.0
1964-06-15,190.0
1964-06-16,200.0
1964-06-17,200.0
1964-06-18,200.0
1964-06-19,194.0
1964-06-20,190.0
1964-06-21,190.0
1964-06-22,190.0
1964-06-23,183.0
1964-06-24,173.0
1964-06-25,173.0
1964-06-26,155.0
1964-06-27,145.0
1964-06-28,145.0
1964-06-29,139.0
1964-06-30,130.0
1964-07-01,130.0
1964-07-02,126.0
1964-07-03,120.0
1964-07-04,120.0
1964-07-05,120.0
1964-07-06,114.0
1964-07-07,106.0
1964-07-08,106.0
1964-07-09,106.0
1964-07-10,106.0
1964-07-11,106.0
1964-07-12,106.0
1964-07-13,108.0
1964-07-14,104.0
1964-07-15,101.0
1964-07-16,101.0
1964-07-17,99.0
1964-07-18,99.0
1964-07-19,99.0
1964-07-20,99.0
1964-07-21,100.0
1964-07-22,102.0
1964-07-23,99.0
1964-07-24,98.0
1964-07-25,98.0
1964-07-26,98.0
1964-07-27,96.0
1964-07-28,92.0
1964-07-29,92.0
1964-07-30,92.0
1964-07-31,92.0
1964-08-01,92.0
1964-08-02,92.0
1964-08-03,95.0
1964-08-04,100.0
1964-08-05,95.0
1964-08-06,85.0
1964-08-07,85.0
1964-08-08,85.0
1964-08-09,85.0
1964-08-10,82.0
1964-08-11,78.0
1964-08-12,64.0
1964-08-13,10.0
1964-08-14,10.0
1964-08-15,10.0
1964-08-16,10.0
1964-08-17,51.0
1964-08-18,66.0
1964-08-19,64.0
1964-08-20,64.0
1964-08-21,64.0
1964-08-22,64.0
1964-08-23,64.0
1964-08-24,65.0
1964-08-25,66.0
1964-08-26,66.0
1964-08-27,66.0
1964-08-28,66.0
1964-08-29,66.0
1964-08-30,66.0
1964-08-31,73.0
1964-09-01,85.0
1964-09-02,85.0
1964-09-03,85.0
1964-09-04,85.0
1964-09-05,85.0
1964-09-06,85.0
1964-09-07,85.0
1964-09-08,91.0
1964-09-09,94.0
1964-09-10,94.0
1964-09-11,94.0
1964-09-12,94.0
1964-09-13,94.0
1964-09-14,79.0
1964-09-15,55.0
1964-09-16,55.0
1964-09-17,55.0
1964-09-18,55.0
1964-09-19,55.0
1964-09-20,55.0
1964-09-21,53.0
1964-09-22,50.0
1964-09-23,50.0
1964-09-24,50.0
1964-09-25,50.0
1964-09-26,50.0
1964-09-27,50.0
1964-09-28,48.0
1964-09-29,47.0
1964-09-30,47.0
1964-10-01,47.0
1964-10-02,47.0
1964-10-03,47.0
1964-10-04,47.0
1964-10-05,38.0
1964-10-06,21.0
1964-10-07,20.0
1964-10-08,15.0
1964-10-09,15.0
1964-10-10,15.0
1964-10-11,15.0
1964-10-12,15.0
1964-10-13,15.0
1964-10-14,15.0
1964-10-15,15.0
1964-10-16,15.0
1964-10-17,15.0
1964-10-18,16.0
1964-10-19,19.0
1964-10-20,19.0
1964-10-21,19.0
1964-10-22,19.0
1964-10-23,19.0
1964-10-24,19.0
1964-10-25,19.0
1964-10-26,19.0
1964-10-27,19.0
1964-10-28,19.0
1964-10-29,19.0
1964-10-30,19.0
1964-10-31,19.0
1964-11-01,19.0
1964-11-02,19.0
1964-11-03,19.0
1964-11-04,19.0
1964-11-05,19.0
1964-11-06,19.0
1964-11-07,19.0
1964-11-08,19.0
1964-11-09,19.0
1964-11-10,19.0
1964-11-11,19.0
1964-11-12,19.0
1964-11-13,11.0
1964-11-14,10.0
1964-11-15,9.0
1964-11-16,9.0
1964-11-17,9.0
1964-11-18,9.0
1964-11-19,9.0
1964-11-20,9.0
1964-11-21,9.0
1964-11-22,9.0
1964-11-23,9.0
1964-11-24,9.0
1964-11-25,9.0
1964-11-26,9.0
1964-11-27,9.0
1964-11-28,9.0
1964-11-29,9.0
1964-11-30,9.0
1964-12-01,11.0
1964-12-02,20.0
1964-12-03,26.0
1964-12-04,35.0
1964-12-05,35.0
1964-12-06,35.0
1964-12-07,35.0
1964-12-08,35.0
1964-12-09,35.0
1964-12-10,29.0
1964-12-11,9.0
1964-12-12,9.0
1964-12-13,9.0
1964-12-14,9.0
1964-12-15,9.0
1964-12-16,9.0
1964-12-17,9.0
1964-12-18,9.0
1964-12-19,9.0
1964-12-20,9.0
1964-12-21,9.0
1964-12-22,9.0
1964-12-23,9.0
1964-12-24,9.0
1964-12-25,9.0
1964-12-26,9.0
1964-12-27,9.0
1964-12-28,9.0
1964-12-29,9.0
1964-12-30,9.0
1964-12-31,9.0
1965-01-01,9.0
1965-01-02,9.0
1965-01-03,9.0
1965-01-04,9.0
1965-01-05,9.0
1965-01-06,9.0
1965-01-07,9.0
1965-01-08,9.0
1965-01-09,9.0
1965-01-10,9.0
1965-01-11,9.0
1965-01-12,9.0
1965-01-13,9.0
1965-01-14,9.0
1965-01-15,9.0
1965-01-16,9.0
1965-01-17,9.0
1965-01-18,9.0
1965-01-19,9.0
1965-01-20,9.0
1965-01-21,9.0
1965-01-22,9.0
1965-01-23,9.0
1965-01-24,9.0
1965-01-25,9.0
1965-01-26,9.0
1965-01-27,9.0
1965-01-28,9.0
1965-01-29,9.0
1965-01-30,9.0
1965-01-31,9.0
1965-02-01,9.0
1965-02-02,9.0
1965-02-03,9.0
1965-02-04,9.0
1965-02-05,9.0
1965-02-06,9.0
1965-02-07,9.0
1965-02-08,9.0
1965-02-09,9.0
1965-02-10,9.0
1965-02-11,9.0
1965-02-12,9.0
1965-02-13,9.0
1965-02-14,9.0
1965-02-15,9.0
1965-02-16,9.0
1965-02-17,9.0
1965-02-18,9.0
1965-02-19,9.0
1965-02-20,9.0
1965-02-21,9.0
1965-02-22,9.0
1965-02-23,9.0
1965-02-24,9.0
1965-02-25,9.0
1965-02-26,9.0
1965-02-27,9.0
1965-02-28,9.0
1965-03-01,9.0
1965-03-02,9.0
1965-03-03,9.0
1965-03-04,9.0
1965-03-05,9.0
1965-03-06,9.0
1965-03-07,9.0
1965-03-08,9.0
1965-03-09,9.0
1965-03-10,9.0
1965-03-11,9.0
1965-03-12,9.0
1965-03-13,9.0
1965-03-14,9.0
1965-03-15,9.0
1965-03-16,9.0
1965-03-17,9.0
1965-03-18,9.0
1965-03-19,9.0
1965-03-20,9.0
1965-03-21,9.0
1965-03-22,9.0
1965-03-23,9.0
1965-03-24,9.0
1965-03-25,9.0
1965-03-26,9.0
1965-03-27,9.0
1965-03-28,9.0
1965-03-29,9.0
1965-03-30,9.0
1965-03-31,9.0
1965-04-01,4.0
1965-04-02,4.0
1965-04-03,4.0
1965-04-04,4.0
1965-04-05,4.0
1965-04-06,4.0
1965-04-07,4.0
1965-04-08,4.0
1965-04-09,4.0
1965-04-10,4.0
1965-04-11,4.0
1965-04-12,4.0
1965-04-13,4.0
1965-04-14,4.0
1965-04-15,4.0
1965-04-16,4.0
1965-04-17,4.0
1965-04-18,4.0
1965-04-19,4.0
1965-04-20,4.0
1965-04-21,4.0
1965-04-22,4.0
1965-04-23,4.0
1965-04-24,4.0
1965-04-25,4.0
1965-04-26,2.0
1965-04-27,0.0
1965-04-28,0.0
1965-04-29,0.0
1965-04-30,0.0
1965-05-01,0.0
1965-05-02,0.0
1965-05-03,0.0
1965-05-04,0.0
1965-05-05,0.0
1965-05-06,0.0
1965-05-07,0.0
1965-05-08,0.0
1965-05-09,0.0
1965-05-10,0.0
1965-05-11,0.0
1965-05-12,0.0
1965-05-13,0.0
1965-05-14,0.0
1965-05-15,5.0
1965-05-16,5.0
1965-05-17,5.0
1965-05-18,5.0
1965-05-19,5.0
1965-05-20,5.0
1965-05-21,40.0
1965-05-22,30.0
1965-05-23,30.0
1965-05-24,50.0
1965-05-25,70.0
1965-05-26,200.0
1965-05-27,200.0
1965-05-28,200.0
1965-05-29,185.0
1965-05-30,185.0
1965-05-31,185.0
1965-06-01,185.0
1965-06-02,200.0
1965-06-03,200.0
1965-06-04,187.0
1965-06-05,200.0
1965-06-06,200.0
1965-06-07,233.0
1965-06-08,240.0
1965-06-09,240.0
1965-06-10,240.0
1965-06-11,240.0
1965-06-12,240.0
1965-06-13,240.0
1965-06-14,358.0
1965-06-15,450.0
1965-06-16,550.0
1965-06-17,450.0
1965-06-18,550.0
1965-06-19,650.0
1965-06-20,872.0
1965-06-21,803.0
1965-06-22,670.0
1965-06-23,433.0
1965-06-24,838.0
1965-06-25,767.0
1965-06-26,442.0
1965-06-27,308.0
1965-06-28,300.0
1965-06-29,350.0
1965-06-30,571.0
1965-07-01,736.0
1965-07-02,800.0
1965-07-03,700.0
1965-07-04,700.0
1965-07-05,700.0
1965-07-06,479.0
1965-07-07,437.0
1965-07-08,360.0
1965-07-09,350.0
1965-07-10,350.0
1965-07-11,300.0
1965-07-12,440.0
1965-07-13,480.0
1965-07-14,480.0
1965-07-15,435.0
1965-07-16,475.0
1965-07-17,430.0
1965-07-18,385.0
1965-07-19,288.0
1965-07-20,0.0
1965-07-21,0.0
1965-07-22,0.0
1965-07-23,0.0
1965-07-24,0.0
1965-07-25,0.0
1965-07-26,0.0
1965-07-27,66.0
1965-07-28,0.0
1965-07-29,0.0
1965-07-30,142.0
1965-07-31,265.0
1965-08-01,288.0
1965-08-02,288.0
1965-08-03,300.0
1965-08-04,288.0
1965-08-05,275.0
1965-08-06,288.0
1965-08-07,300.0
1965-08-08,300.0
1965-08-09,192.0
1965-08-10,192.0
1965-08-11,215.0
1965-08-12,206.0
1965-08-13,225.0
1965-08-14,230.0
1965-08-15,230.0
1965-08-16,220.0
1965-08-17,230.0
1965-08-18,222.0
1965-08-19,220.0
1965-08-20,200.0
1965-08-21,190.0
1965-08-22,190.0
1965-08-23,155.0
1965-08-24,160.0
1965-08-25,160.0
1965-08-26,153.0
1965-08-27,146.0
1965-08-28,153.0
1965-08-29,153.0
1965-08-30,153.0
1965-08-31,160.0
1965-09-01,153.0
1965-09-02,160.0
1965-09-03,160.0
1965-09-04,153.0
1965-09-05,160.0
1965-09-06,133.0
1965-09-07,128.0
1965-09-08,111.0
1965-09-09,86.0
1965-09-10,90.0
1965-09-11,90.0
1965-09-12,90.0
1965-09-13,100.0
1965-09-14,96.0
1965-09-15,106.0
1965-09-16,110.0
1965-09-17,110.0
1965-09-18,110.0
1965-09-19,110.0
1965-09-20,86.0
1965-09-21,81.0
1965-09-22,64.0
1965-09-23,65.0
1965-09-24,50.0
1965-09-25,50.0
1965-09-26,40.0
1965-09-27,38.0
1965-09-28,40.0
1965-09-29,40.0
1965-09-30,40.0
1965-10-01,40.0
1965-10-02,40.0
1965-10-03,40.0
1965-10-04,38.0
1965-10-05,40.0
1965-10-06,70.0
1965-10-07,150.0
1965-10-08,147.0
1965-10-09,80.0
1965-10-10,77.0
1965-10-11,80.0
1965-10-12,80.0
1965-10-13,80.0
1965-10-14,97.0
1965-10-15,79.0
1965-10-16,100.0
1965-10-17,100.0
1965-10-18,100.0
1965-10-19,100.0
1965-10-20,100.0
1965-10-21,100.0
1965-10-22,96.0
1965-10-23,100.0
1965-10-24,100.0
1965-10-25,100.0
1965-10-26,100.0
1965-10-27,100.0
1965-10-28,100.0
1965-10-29,100.0
1965-10-30,100.0
1965-10-31,96.0
1965-11-01,100.0
1965-11-02,100.0
1965-11-03,100.0
1965-11-04,100.0
1965-11-05,100.0
1965-11-06,100.0
1965-11-07,100.0
1965-11-08,96.0
1965-11-09,100.0
1965-11-10,88.0
1965-11-11,58.0
1965-11-12,58.0
1965-11-13,60.0
1965-11-14,60.0
1965-11-15,58.0
1965-11-16,60.0
1965-11-17,60.0
1965-11-18,60.0
1965-11-19,60.0
1965-11-20,60.0
1965-11-21,60.0
1965-11-22,58.0
1965-11-23,60.0
1965-11-24,60.0
1965-11-25,60.0
1965-11-26,60.0
1965-11-27,60.0
1965-11-28,60.0
1965-11-29,58.0
1965-11-30,60.0
1965-12-01,60.0
1965-12-02,60.0
1965-12-03,60.0
1965-12-04,60.0
1965-12-05,60.0
1965-12-06,60.0
1965-12-07,60.0
1965-12-08,60.0
1965-12-09,60.0
1965-12-10,60.0
1965-12-11,60.0
1965-12-12,60.0
1965-12-13,60.0
1965-12-14,60.0
1965-12-15,60.0
1965-12-16,60.0
1965-12-17,60.0
1965-12-18,60.0
1965-12-19,60.0
1965-12-20,60.0
1965-12-21,60.0
1965-12-22,60.0
1965-12-23,60.0
1965-12-24,60.0
1965-12-25,60.0
1965-12-26,60.0
1965-12-27,60.0
1965-12-28,60.0
1965-12-29,60.0
1965-12-30,60.0
1965-12-31,60.0
1966-01-01,60.0
1966-01-02,60.0
1966-01-03,58.0
1966-01-04,60.0
1966-01-05,60.0
1966-01-06,60.0
1966-01-07,60.0
1966-01-08,60.0
1966-01-09,60.0
1966-01-10,60.0
1966-01-11,60.0
1966-01-12,60.0
1966-01-13,60.0
1966-01-14,60.0
1966-01-15,60.0
1966-01-16,60.0
1966-01-17,60.0
1966-01-18,60.0
1966-01-19,50.0
1966-01-20,40.0
1966-01-21,40.0
1966-01-22,60.0
1966-01-23,60.0
1966-01-24,57.0
1966-01-25,60.0
1966-01-26,60.0
1966-01-27,60.0
1966-01-28,60.0
1966-01-29,60.0
1966-01-30,60.0
1966-01-31,45.0
1966-02-01,48.0
1966-02-02,40.0
1966-02-03,18.0
1966-02-04,15.0
1966-02-05,15.0
1966-02-06,15.0
1966-02-07,15.0
1966-02-08,15.0
1966-02-09,15.0
1966-02-10,15.0
1966-02-11,15.0
1966-02-12,15.0
1966-02-13,15.0
1966-02-14,15.0
1966-02-15,15.0
1966-02-16,15.0
1966-02-17,15.0
1966-02-18,15.0
1966-02-19,15.0
1966-02-20,15.0
1966-02-21,15.0
1966-02-22,15.0
1966-02-23,15.0
1966-02-24,15.0
1966-02-25,15.0
1966-02-26,15.0
1966-02-27,15.0
1966-02-28,15.0
1966-03-01,15.0
1966-03-02,15.0
1966-03-03,15.0
1966-03-04,15.0
1966-03-05,15.0
1966-03-06,15.0
1966-03-07,15.0
1966-03-08,14.0
1966-03-09,11.0
1966-03-10,14.0
1966-03-11,14.0
1966-03-12,15.0
1966-03-13,0.0
1966-03-14,0.0
1966-03-15,0.0
1966-03-16,0.0
1966-03-17,0.0
1966-03-18,0.0
1966-03-19,0.0
1966-03-20,0.0
1966-03-21,0.0
1966-03-22,0.0
1966-03-23,0.0
1966-03-24,0.0
1966-03-25,0.0
1966-03-26,0.0
1966-03-27,0.0
1966-03-28,0.0
1966-03-29,0.0
1966-03-30,0.0
1966-03-31,0.0
1966-04-01,0.0
1966-04-02,0.0
1966-04-03,0.0
1966-04-04,0.0
1966-04-05,0.0
1966-04-06,0.0
1966-04-07,0.0
1966-04-08,0.0
1966-04-09,0.0
1966-04-10,0.0
1966-04-11,0.0
1966-04-12,0.0
1966-04-13,0.0
1966-04-14,0.0
1966-04-15,0.0
1966-04-16,0.0
1966-04-17,0.0
1966-04-18,0.0
1966-04-19,0.0
1966-04-20,0.0
1966-04-21,0.0
1966-04-22,0.0
1966-04-23,0.0
1966-04-24,0.0
1966-04-25,0.0
1966-04-26,0.0
1966-04-27,0.0
1966-04-28,10.0
1966-04-29,31.0
1966-04-30,53.0
1966-05-01,60.0
1966-05-02,100.0
1966-05-03,100.0
1966-05-04,142.0
1966-05-05,185.0
1966-05-06,331.0
1966-05-07,465.0
1966-05-08,550.0
1966-05-09,535.0
1966-05-10,550.0
1966-05-11,466.0
1966-05-12,348.0
1966-05-13,350.0
1966-05-14,350.0
1966-05-15,350.0
1966-05-16,296.0
1966-05-17,250.0
1966-05-18,346.0
1966-05-19,445.0
1966-05-20,583.0
1966-05-21,600.0
1966-05-22,500.0
1966-05-23,500.0
1966-05-24,550.0
1966-05-25,519.0
1966-05-26,488.0
1966-05-27,400.0
1966-05-28,400.0
1966-05-29,350.0
1966-05-30,375.0
1966-05-31,567.0
1966-06-01,550.0
1966-06-02,550.0
1966-06-03,550.0
1966-06-04,550.0
1966-06-05,475.0
1966-06-06,292.0
1966-06-07,275.0
1966-06-08,275.0
1966-06-09,275.0
1966-06-10,256.0
1966-06-11,250.0
1966-06-12,250.0
1966-06-13,245.0
1966-06-14,245.0
1966-06-15,245.0
1966-06-16,245.0
1966-06-17,245.0
1966-06-18,245.0
1966-06-19,245.0
1966-06-20,245.0
1966-06-21,255.0
1966-06-22,255.0
1966-06-23,255.0
1966-06-24,255.0
1966-06-25,255.0
1966-06-26,255.0
1966-06-27,255.0
1966-06-28,255.0
1966-06-29,245.0
1966-06-30,245.0
1966-07-01,245.0
1966-07-02,245.0
1966-07-03,245.0
1966-07-04,245.0
1966-07-05,245.0
1966-07-06,245.0
1966-07-07,245.0
1966-07-08,245.0
1966-07-09,245.0
1966-07-10,245.0
1966-07-11,245.0
1966-07-12,245.0
1966-07-13,235.0
1966-07-14,235.0
1966-07-15,225.0
1966-07-16,225.0
1966-07-17,215.0
1966-07-18,215.0
1966-07-19,215.0
1966-07-20,215.0
1966-07-21,212.0
1966-07-22,210.0
1966-07-23,210.0
1966-07-24,210.0
1966-07-25,193.0
1966-07-26,190.0
1966-07-27,190.0
1966-07-28,190.0
1966-07-29,180.0
1966-07-30,174.0
1966-07-31,160.0
1966-08-01,160.0
1966-08-02,140.0
1966-08-03,64.0
1966-08-04,60.0
1966-08-05,75.0
1966-08-06,80.0
1966-08-07,80.0
1966-08-08,88.0
1966-08-09,90.0
1966-08-10,90.0
1966-08-11,90.0
1966-08-12,100.0
1966-08-13,100.0
1966-08-14,100.0
1966-08-15,100.0
1966-08-16,100.0
1966-08-17,100.0
1966-08-18,105.0
1966-08-19,105.0
1966-08-20,105.0
1966-08-21,105.0
1966-08-22,105.0
1966-08-23,105.0
1966-08-24,110.0
1966-08-25,110.0
1966-08-26,110.0
1966-08-27,110.0
1966-08-28,110.0
1966-08-29,130.0
1966-08-30,130.0
1966-08-31,135.0
1966-09-01,135.0
1966-09-02,135.0
1966-09-03,135.0
1966-09-04,135.0
1966-09-05,135.0
1966-09-06,135.0
1966-09-07,135.0
1966-09-08,135.0
1966-09-09,135.0
1966-09-10,135.0
1966-09-11,135.0
1966-09-12,125.0
1966-09-13,105.0
1966-09-14,92.0
1966-09-15,90.0
1966-09-16,70.0
1966-09-17,70.0
1966-09-18,70.0
1966-09-19,70.0
1966-09-20,70.0
1966-09-21,70.0
1966-09-22,70.0
1966-09-23,70.0
1966-09-24,70.0
1966-09-25,70.0
1966-09-26,70.0
1966-09-27,75.0
1966-09-28,75.0
1966-09-29,75.0
1966-09-30,80.0
1966-10-01,80.0
1966-10-02,80.0
1966-10-03,80.0
1966-10-04,80.0
1966-10-05,80.0
1966-10-06,80.0
1966-10-07,80.0
1966-10-08,80.0
1966-10-09,80.0
1966-10-10,80.0
1966-10-11,80.0
1966-10-12,80.0
1966-10-13,80.0
1966-10-14,80.0
1966-10-15,80.0
1966-10-16,80.0
1966-10-17,80.0
1966-10-18,80.0
1966-10-19,80.0
1966-10-20,80.0
1966-10-21,85.0
1966-10-22,85.0
1966-10-23,85.0
1966-10-24,77.0
1966-10-25,71.0
1966-10-26,70.0
1966-10-27,70.0
1966-10-28,70.0
1966-10-29,18.0
1966-10-30,15.0
1966-10-31,14.0
1966-11-01,14.0
1966-11-02,14.0
1966-11-03,14.0
1966-11-04,9.0
1966-11-05,9.0
1966-11-06,9.0
1966-11-07,9.0
1966-11-08,9.0
1966-11-09,9.0
1966-11-10,9.0
1966-11-11,9.0
1966-11-12,9.0
1966-11-13,9.0
1966-11-14,9.0
1966-11-15,9.0
1966-11-16,9.0
1966-11-17,9.0
1966-11-18,9.0
1966-11-19,9.0
1966-11-20,9.0
1966-11-21,9.0
1966-11-22,9.0
1966-11-23,9.0
1966-11-24,9.0
1966-11-25,9.0
1966-11-26,9.0
1966-11-27,9.0
1966-11-28,9.0
1966-11-29,9.0
1966-11-30,40.0
1966-12-01,40.0
1966-12-02,40.0
1966-12-03,40.0
1966-12-04,40.0
1966-12-05,40.0
1966-12-06,9.0
1966-12-07,9.0
1966-12-08,9.0
1966-12-09,9.0
1966-12-10,9.0
1966-12-11,9.0
1966-12-12,9.0
1966-12-13,9.0
1966-12-14,9.0
1966-12-15,9.0
1966-12-16,9.0
1966-12-17,9.0
1966-12-18,9.0
1966-12-19,9.0
1966-12-20,9.0
1966-12-21,9.0
1966-12-22,9.0
1966-12-23,9.0
1966-12-24,9.0
1966-12-25,9.0
1966-12-26,9.0
1966-12-27,9.0
1966-12-28,9.0
1966-12-29,9.0
1966-12-30,9.0
1966-12-31,9.0
1967-01-01,9.0
1967-01-02,9.0
1967-01-03,9.0
1967-01-04,9.0
1967-01-05,9.0
1967-01-06,9.0
1967-01-07,9.0
1967-01-08,9.0
1967-01-09,9.0
1967-01-10,9.0
1967-01-11,9.0
1967-01-12,9.0
1967-01-13,9.0
1967-01-14,9.0
1967-01-15,9.0
1967-01-16,9.0
1967-01-17,9.0
1967-01-18,9.0
1967-01-19,9.0
1967-01-20,9.0
1967-01-21,9.0
1967-01-22,9.0
1967-01-23,9.0
1967-01-24,9.0
1967-01-25,9.0
1967-01-26,9.0
1967-01-27,9.0
1967-01-28,9.0
1967-01-29,9.0
1967-01-30,9.0
1967-01-31,9.0
1967-02-01,9.0
1967-02-02,9.0
1967-02-03,9.0
1967-02-04,9.0
1967-02-05,9.0
1967-02-06,9.0
1967-02-07,9.0
1967-02-08,9.0
1967-02-09,9.0
1967-02-10,9.0
1967-02-11,9.0
1967-02-12,9.0
1967-02-13,9.0
1967-02-14,9.0
1967-02-15,9.0
1967-02-16,9.0
1967-02-17,9.0
1967-02-18,9.0
1967-02-19,9.0
1967-02-20,9.0
1967-02-21,9.0
1967-02-22,9.0
1967-02-23,9.0
1967-02-24,9.0
1967-02-25,9.0
1967-02-26,9.0
1967-02-27,9.0
1967-02-28,9.0
1967-03-01,9.0
1967-03-02,9.0
1967-03-03,9.0
1967-03-04,7.0
1967-03-05,7.0
1967-03-06,7.0
1967-03-07,7.0
1967-03-08,7.0
1967-03-09,7.0
1967-03-10,7.0
1967-03-11,7.0
1967-03-12,7.0
1967-03-13,7.0
1967-03-14,7.0
1967-03-15,7.0
1967-03-16,7.0
1967-03-17,7.0
1967-03-18,7.0
1967-03-19,7.0
1967-03-20,7.0
1967-03-21,5.0
1967-03-22,5.0
1967-03-23,5.0
1967-03-24,3.0
1967-03-25,3.0
1967-03-26,3.0
1967-03-27,3.0
1967-03-28,3.0
1967-03-29,3.0
1967-03-30,3.0
1967-03-31,3.0
1967-04-01,3.0
1967-04-02,3.0
1967-04-03,3.0
1967-04-04,3.0
1967-04-05,3.0
1967-04-06,3.0
1967-04-07,3.0
1967-04-08,3.0
1967-04-09,3.0
1967-04-10,6.0
1967-04-11,7.0
1967-04-12,7.0
1967-04-13,7.0
1967-04-14,7.0
1967-04-15,7.0
1967-04-16,7.0
1967-04-17,7.0
1967-04-18,30.0
1967-04-19,30.0
1967-04-20,40.0
1967-04-21,40.0
1967-04-22,68.0
1967-04-23,70.0
1967-04-24,95.0
1967-04-25,80.0
1967-04-26,70.0
1967-04-27,70.0
1967-04-28,70.0
1967-04-29,70.0
1967-04-30,70.0
1967-05-01,80.0
1967-05-02,80.0
1967-05-03,80.0
1967-05-04,90.0
1967-05-05,90.0
1967-05-06,90.0
1967-05-07,98.0
1967-05-08,110.0
1967-05-09,120.0
1967-05-10,200.0
1967-05-11,200.0
1967-05-12,217.0
1967-05-13,220.0
1967-05-14,220.0
1967-05-15,210.0
1967-05-16,210.0
1967-05-17,210.0
1967-05-18,220.0
1967-05-19,220.0
1967-05-20,230.0
1967-05-21,230.0
1967-05-22,230.0
1967-05-23,230.0
1967-05-24,230.0
1967-05-25,230.0
1967-05-26,230.0
1967-05-27,230.0
1967-05-28,230.0
1967-05-29,230.0
1967-05-30,222.0
1967-05-31,220.0
1967-06-01,205.0
1967-06-02,200.0
1967-06-03,163.0
1967-06-04,150.0
1967-06-05,170.0
1967-06-06,170.0
1967-06-07,170.0
1967-06-08,162.0
1967-06-09,160.0
1967-06-10,160.0
1967-06-11,160.0
1967-06-12,170.0
1967-06-13,162.0
1967-06-14,160.0
1967-06-15,160.0
1967-06-16,160.0
1967-06-17,160.0
1967-06-18,160.0
1967-06-19,160.0
1967-06-20,160.0
1967-06-21,160.0
1967-06-22,160.0
1967-06-23,170.0
1967-06-24,170.0
1967-06-25,170.0
1967-06-26,170.0
1967-06-27,170.0
1967-06-28,170.0
1967-06-29,170.0
1967-06-30,170.0
1967-07-01,170.0
1967-07-02,170.0
1967-07-03,170.0
1967-07-04,170.0
1967-07-05,170.0
1967-07-06,163.0
1967-07-07,153.0
1967-07-08,150.0
1967-07-09,150.0
1967-07-10,160.0
1967-07-11,160.0
1967-07-12,168.0
1967-07-13,170.0
1967-07-14,170.0
1967-07-15,170.0
1967-07-16,170.0
1967-07-17,137.0
1967-07-18,130.0
1967-07-19,130.0
1967-07-20,101.0
1967-07-21,100.0
1967-07-22,100.0
1967-07-23,110.0
1967-07-24,120.0
1967-07-25,120.0
1967-07-26,140.0
1967-07-27,140.0
1967-07-28,140.0
1967-07-29,130.0
1967-07-30,130.0
1967-07-31,130.0
1967-08-01,130.0
1967-08-02,130.0
1967-08-03,150.0
1967-08-04,150.0
1967-08-05,150.0
1967-08-06,128.0
1967-08-07,120.0
1967-08-08,120.0
1967-08-09,120.0
1967-08-10,120.0
1967-08-11,112.0
1967-08-12,100.0
1967-08-13,86.0
1967-08-14,50.0
1967-08-15,50.0
1967-08-16,50.0
1967-08-17,50.0
1967-08-18,40.0
1967-08-19,33.0
1967-08-20,30.0
1967-08-21,30.0
1967-08-22,30.0
1967-08-23,30.0
1967-08-24,30.0
1967-08-25,30.0
1967-08-26,30.0
1967-08-27,30.0
1967-08-28,50.0
1967-08-29,70.0
1967-08-30,70.0
1967-08-31,70.0
1967-09-01,60.0
1967-09-02,60.0
1967-09-03,60.0
1967-09-04,60.0
1967-09-05,90.0
1967-09-06,90.0
1967-09-07,90.0
1967-09-08,90.0
1967-09-09,90.0
1967-09-10,90.0
1967-09-11,90.0
1967-09-12,110.0
1967-09-13,110.0
1967-09-14,120.0
1967-09-15,120.0
1967-09-16,120.0
1967-09-17,120.0
1967-09-18,120.0
1967-09-19,92.0
1967-09-20,90.0
1967-09-21,98.0
1967-09-22,108.0
1967-09-23,110.0
1967-09-24,110.0
1967-09-25,120.0
1967-09-26,120.0
1967-09-27,110.0
1967-09-28,98.0
1967-09-29,90.0
1967-09-30,90.0
1967-10-01,90.0
1967-10-02,90.0
1967-10-03,90.0
1967-10-04,90.0
1967-10-05,90.0
1967-10-06,90.0
1967-10-07,90.0
1967-10-08,80.0
1967-10-09,80.0
1967-10-10,80.0
1967-10-11,80.0
1967-10-12,80.0
1967-10-13,80.0
1967-10-14,80.0
1967-10-15,80.0
1967-10-16,80.0
1967-10-17,80.0
1967-10-18,80.0
1967-10-19,80.0
1967-10-20,80.0
1967-10-21,80.0
1967-10-22,80.0
1967-10-23,80.0
1967-10-24,100.0
1967-10-25,90.0
1967-10-26,90.0
1967-10-27,90.0
1967-10-28,73.0
1967-10-29,70.0
1967-10-30,70.0
1967-10-31,34.0
1967-11-01,12.0
1967-11-02,12.0
1967-11-03,12.0
1967-11-04,12.0
1967-11-05,12.0
1967-11-06,12.0
1967-11-07,12.0
1967-11-08,12.0
1967-11-09,12.0
1967-11-10,12.0
1967-11-11,12.0
1967-11-12,12.0
1967-11-13,12.0
1967-11-14,12.0
1967-11-15,9.0
1967-11-16,9.0
1967-11-17,9.0
1967-11-18,9.0
1967-11-19,9.0
1967-11-20,9.0
1967-11-21,9.0
1967-11-22,9.0
1967-11-23,9.0
1967-11-24,9.0
1967-11-25,9.0
1967-11-26,9.0
1967-11-27,9.0
1967-11-28,9.0
1967-11-29,9.0
1967-11-30,9.0
1967-12-01,9.0
1967-12-02,9.0
1967-12-03,9.0
1967-12-04,9.0
1967-12-05,9.0
1967-12-06,9.0
1967-12-07,43.0
1967-12-08,50.0
1967-12-09,26.0
1967-12-10,9.0
1967-12-11,9.0
1967-12-12,9.0
1967-12-13,9.0
1967-12-14,9.0
1967-12-15,9.0
1967-12-16,9.0
1967-12-17,9.0
1967-12-18,9.0
1967-12-19,9.0
1967-12-20,9.0
1967-12-21,9.0
1967-12-22,9.0
1967-12-23,9.0
1967-12-24,9.0
1967-12-25,9.0
1967-12-26,9.0
1967-12-27,9.0
1967-12-28,9.0
1967-12-29,9.0
1967-12-30,9.0
1967-12-31,9.0
1968-01-01,9.0
1968-01-02,9.0
1968-01-03,9.0
1968-01-04,9.0
1968-01-05,9.0
1968-01-06,9.0
1968-01-07,9.0
1968-01-08,9.0
1968-01-09,9.0
1968-01-10,9.0
1968-01-11,9.0
1968-01-12,9.0
1968-01-13,9.0
1968-01-14,9.0
1968-01-15,9.0
1968-01-16,9.0
1968-01-17,9.0
1968-01-18,9.0
1968-01-19,9.0
1968-01-20,9.0
1968-01-21,9.0
1968-01-22,9.0
1968-01-23,9.0
1968-01-24,9.0
1968-01-25,9.0
1968-01-26,9.0
1968-01-27,9.0
1968-01-28,9.0
1968-01-29,9.0
1968-01-30,9.0